[Iaude] MPEC E68: 2024 EQ1 [a=1.36,e=0.50,i=14.7,H=25.1]
    mpec at cfa.harvard.edu 
    mpec at cfa.harvard.edu
       
    Tue Mar  5 18:36:12 EST 2024
    
    
  
M.P.E.C. 2024-E68                                 Issued 2024 March 5, 23:34 UT
     The Minor Planet Electronic Circulars contain information on unusual
         minor planets, routine data on comets and natural satellites,
         and occasional editorial announcements.  They are published
    on behalf of Division F of the International Astronomical Union by the
          Minor Planet Center, Smithsonian Astrophysical Observatory,
                          Cambridge, MA 02138, U.S.A.
			  
             Prepared using the Tamkin Foundation Computer Network
                              MPC at CFA.HARVARD.EDU
            URL https://www.minorplanetcenter.net/    ISSN 1523-6714
                                    2024 EQ1                                    
Observations:
     K24E01Q  C2024 03 02.59906711 18 36.042-08 25 04.68         20.07GVEE068F52
     K24E01Q*1C2024 03 05.35637711 35 00.946-01 04 09.55         18.68GVEE068703
     K24E01Q 1C2024 03 05.35864111 35 02.101-01 03 32.65         19.87GVEE068703
     K24E01Q 1C2024 03 05.36090611 35 03.160-01 02 57.98         18.78GVEE068703
     K24E01Q 1C2024 03 05.36317011 35 04.333-01 02 23.53         18.65GVEE068703
     K24E01Q mC2024 03 05.43952811 35 42.616-00 42 33.01         18.89GVEE068I52
     K24E01Q mC2024 03 05.43969811 35 42.698-00 42 29.95         18.62GVEE068I52
     K24E01Q mC2024 03 05.43986811 35 42.785-00 42 27.25         18.50GVEE068I52
     K24E01Q mC2024 03 05.44029811 35 43.026-00 42 20.48         18.88GVEE068I52
     K24E01Q KB2024 03 05.65478 11 38 06.11 +00 17 09.7          18.1 GVEE068O46
     K24E01Q KB2024 03 05.65959 11 38 08.86 +00 18 35.3          18.3 GVEE068O46
     K24E01Q KB2024 03 05.66396 11 38 11.38 +00 19 50.1          19.7 GVEE068O46
     K24E01Q KB2024 03 05.86789 11 40 25.53 +01 21 01.8          18.7 GXEE068M45
     K24E01Q KB2024 03 05.87449 11 40 29.78 +01 23 07.9          18.4 GXEE068M45
     K24E01Q KB2024 03 05.90259 11 40 51.18 +01 32 13.4          18.4 GXEE068K19
     K24E01Q KB2024 03 05.90623 11 40 53.56 +01 33 25.0          18.5 GXEE068K19
     K24E01Q KB2024 03 05.90992 11 40 56.04 +01 34 36.9          18.5 GXEE068K19
     K24E01Q 1C2024 03 05.94246 11 41 11.39 +01 45 12.0          18.8 GVEE068C40
     K24E01Q 1C2024 03 05.94704 11 41 14.36 +01 46 43.4          18.6 GVEE068C40
     K24E01Q 1C2024 03 05.95153 11 41 17.23 +01 48 12.0          18.7 GVEE068C40
Observer details:
703 Catalina Sky Survey.  Observer K. W. Wierzchos.  Measurers T. Beuden, V.
    F. Carvajal, D. Fay, J. B. Fazekas, D. C. Fuls, A. R. Gibbs, A. D. Grauer,
    H. Groeller, J. K. Hogan, R. A. Kowalski, S. M. Larson, G. J. Leonard, D.
    Rankin, R. L. Seaman, F. C. Shelly, K. W. Wierzchos.  0.68-m Schmidt + 10K
    CCD.
C40 Kuban State University Astrophysical Observatory.  Observers A. Ivanov, A.
    Barcov, V. Ivanov, V. Lysenko, N. Yakovenko, N. Ivanova, N. Gorbunov, G.
    Kurbatov, P. Shchukin, V. Roshchupko.  Measurer A. Ivanov.  0.51-m f/8
    reflector + CCD.
F52 Pan-STARRS 2, Haleakala.  Observers J. Herman, T. Lowe, P. Minguez, A.
    Schultz, I. Smith.  Measurers K. Chambers, T. de Boer, J. Fairlamb, H.
    Gao, M. Huber, C.-C. Lin, E. Magnier, Y. Ramanjooloo, R. Wainscoat, R.
    Weryk.  1.8-m Ritchey-Chretien + CCD.
I52 Steward Observatory, Mt. Lemmon Station.  Observer J. K. Hogan.  Measurers
    T. Beuden, V. F. Carvajal, D. Fay, J. B. Fazekas, D. C. Fuls, A. R. Gibbs,
    A. D. Grauer, H. Groeller, J. K. Hogan, R. A. Kowalski, S. M. Larson, G.
    J. Leonard, D. Rankin, R. L. Seaman, F. C. Shelly, K. W. Wierzchos.  1.0-m
    prime focus + CCD.
K19 PASTIS Observatory, Banon.  Observer C. Demeautis.  0.28-m f/2.2 reflector
    + CMO.
M45 Starhopper Observatory, Sfantu Gheorghe.  Observer F. Ursache.  0.41-m
    f/7.5 reflector + CMO.
O46 Daocheng Glacier Observatory.  Observer Z. Wang.  0.25-m f/8 reflector +
    CMO.
Orbital elements:
2024 EQ1                                                 Earth MOID = 0.0008 AU
Epoch 2024 Mar. 31.0 TT = JDT 2460400.5                 Veres                   
M 339.72897              (2000.0)            P               Q                  
n   0.61915534     Peri.   91.22058     -0.21500137     +0.97464844             
a   1.3633362      Node   165.89422     -0.96623105     -0.20306606             
e   0.5021988      Incl.   14.71991     -0.14202806     -0.09393932             
P   1.59           H   25.19          G   0.15           U   8                  
Residuals in seconds of arc
240302 F52  0.1+  0.0     240305 I52  0.2-  0.2+    240305 K19  0.5-  0.6-
240305 703  0.9-  2.0-    240305 I52  0.1+  0.1+    240305 K19  0.5-  0.3+
240305 703  0.1-  0.2+    240305 O46  0.4-  0.6+    240305 K19  0.4+  0.4+
240305 703  0.8-  0.2+    240305 O46  0.2-  2.5+    240305 C40 (1.5+  0.7-)
240305 703  0.3+  0.1-    240305 O46  0.3+  1.1+    240305 C40 (1.3+  0.2+)
240305 I52  0.1-  0.2-    240305 M45  0.9-  0.6+    240305 C40  0.3+  0.2-
240305 I52  0.2-  0.1+    240305 M45  0.6-  0.4+
Ephemeris:
2024 EQ1                 a,e,i = 1.36, 0.50, 15                  q = 0.6787
Date    TT    R. A. (2000) Decl.     Delta      r    Elong.  Phase     V
2024 02 04    10 51 39.0 -15 03 03   0.3671  1.2862   139.2    30.0    24.9
...
2024 02 19    11 00 01.8 -15 14 02   0.1995  1.1655   150.0    25.1    23.2
...
2024 02 27    11 07 45.7 -12 55 31   0.1166  1.0984   157.0    20.6    21.7
...
2024 03 04    11 25 11.6 -05 31 13   0.05729 1.0474   166.4    12.9    19.8
2024 03 05    11 31 57.3 -02 27 06   0.04783 1.0388   168.8    10.6    19.3
2024 03 06    11 41 53.8 +02 06 43   0.03866 1.0303   170.6     9.1    18.8
...
2024 03 12    21 09 32.5 +48 04 51   0.02989 0.9790    59.7   118.7    22.3
...
2024 03 20    22 30 48.1 +27 55 45   0.1056  0.9114    35.1   141.1    27.1
...
2024 04 04    22 51 21.5 +21 37 23   0.2625  0.7944    33.5   136.0    28.1
M. P. C. Staff               (C) Copyright 2024 MPC           M.P.E.C. 2024-E68
    
    
More information about the Iaude
mailing list